Powrót do katalogu

THORAD DELTA 1 DEB

AktywnySSO
NORAD 8158·DEBRIS·🇺🇸 United States

Wystrzelony Nov 15, 1974 z Vandenberg Space Force Base

Loading…

Następne Przeloty (najbliższe 24 godziny)

TLE

ŚwieżeSource: Space-Track

Epoka: Sep 14, 2026, 04:07 UTC

1 08158U 74089Y   26257.17203878  .00000009  00000-0  29681-3 0  9996
2 08158 101.3993 324.8363 0062026  40.9363 344.2182 12.61689907384952

Śledź THORAD DELTA 1 DEB w czasie rzeczywistym z AllMySat

Download on the App Store